sat.trackr.live / text

‹ back to catalog

CHUANGXIN 1-02 (CX-1-02)

NORAD 33434 · 2008-056B

PAYLOAD ACTIVE UNKNOWN

§ Identity

Operator
Country
PRC
Launch date
2008-11-05
Launch site
JSC
Launch vehicle
Mass (kg)
RCS (m²)
0.54

External: N2YO · Heavens-Above · Gunter

§ Orbital elements

Epoch: 2026-09-10T03:52:34.787136Z

Period
100.69 min
Inclination
98.6114°
Eccentricity
0.0013089
Mean motion
14.30167379 rev/d
Perigee alt
781.8 km
Apogee alt
800.6 km
Semi-major
7,169.3 km
B*
7.0218e-6
RAAN
278.5690°
Arg perigee
249.7128°
Mean anomaly
110.2648°
Rev number
93,076

§ Raw data

CHUANGXIN 1-02 (CX-1-02)1 33434U 08056B   26253.16151374 -.00000026  00000+0  70218-5 0  99932 33434  98.6114 278.5690 0013089 249.7128 110.2648 14.30167379930767

JSON: /api/v1/satellites/33434 · /tle

For live sub-satellite position, see the globe view (requires WebGL).

§ Visibility from observer

Set your observer location to see the next 7 days of passes ≥ 10°. The values pass through the URL so the page stays shareable.

No JS? Fill the form by hand. The geolocation button needs JavaScript.

§ Radio — SatNOGS DB

ModeDescriptionDownlinkUplink
FM S-band telemetry 2.250 GHz

1 transmitter · refreshed weekly from db.satnogs.org